Location: Igon
(43.1667°N, 0.2333°W)
Time: 12:51:36
(UTC+00:00)

NOSS 3-4 (C) - Pass Details

Date: 29 November 2020
Orbit: 878 x 1334 km, 63.4° (Epoch: 22 January)

Event Time Altitude Azimuth Distance (km) Brightness Sun altitude
Exits shadow 05:48:28 21° 281° (WNW) 1,921 4.4 -14.7°
Maximum altitude 05:51:14 30° 323° (NW) 1,611 4.2 -14.2°
Drops below altitude 10° 05:56:45 10° 24° (NNE) 2,753 5.9 -13.3°
Sets 05:59:50 0° 35° (NE) 3,778 6.8 -12.7°
